sat.trackr.live / text

‹ back to catalog

CHECKMATE 6

NORAD 56165 · 2023-050D

PAYLOAD ACTIVE UNKNOWN

§ Identity

Operator
Country
US
Launch date
2023-04-02
Launch site
AFWTR
Launch vehicle
Mass (kg)
RCS (m²)

External: N2YO · Heavens-Above · Gunter

§ Orbital elements

Epoch: 2026-05-24T23:06:27.554688Z

Period
103.88 min
Inclination
81.0036°
Eccentricity
0.0011090
Mean motion
13.86173609 rev/d
Perigee alt
934.0 km
Apogee alt
950.2 km
Semi-major
7,320.2 km
B*
8.0648e-5
RAAN
94.1770°
Arg perigee
16.4270°
Mean anomaly
343.7243°
Rev number
15,888

§ Raw data

CHECKMATE 61 56165U 23050D   26144.96281892  .00000104  00000+0  80648-4 0  99992 56165  81.0036  94.1770 0011090  16.4270 343.7243 13.86173609158882

JSON: /api/v1/satellites/56165 · /tle

For live sub-satellite position, see the globe view (requires WebGL).

§ Visibility from observer

Set your observer location to see the next 7 days of passes ≥ 10°. The values pass through the URL so the page stays shareable.

No JS? Fill the form by hand. The geolocation button needs JavaScript.